Погода в Лесном

Россия / Кировская область     59°46′49″N   52°07′46″E
темп.,
°C
ветер,
м/с
пор.,
м/с
влажн.,
%
обл.,
%
осадки,
мм/ч
давл.,
гПа
погр.,
м
26 января, вт
вт2600:00+1юз41197100 0.3 1020438
03:000юз51295100 0.3 1020541
06:000юз41095100 0.0 1020497
09:00−1юз41092100 0.0 1021587
12:00−2юз4891100 0.1 1021722
15:00−3ююз3893100 0.1 1021508
18:00−4юз3794100 0.1 1021483
21:00−4ююз379599 0.2 1021353
27 января, ср
ср2700:00−3ююз4994100 0.1 1021425
03:00−4ююз3109599 0.2 1020436
06:00−4ююз399599 0.1 1020503
09:00−5ююз4119399 0.2 1020473
12:00−2ю4992100 0.1 1019652
15:00−1ю51190100 0.1 1016754
18:00−2ю61489100 0.0 1015795
21:00−1ююз61496100 1.8 1013841
28 января, чт
чт2800:00−1ююз51296100 2.2 1012744
03:00−2ююз61395100 3.9 1011630
06:00−3ююз51294100 1.3 1010660
09:00−2юз51291100 1.4 1011620
12:000юз4892100 0.1 1013635
15:00−1з269299 0.1 1015367
18:00−6зсз129734 0.0 101721
21:00−6с119759 0.1 101828
29 января, пт
пт2900:00−5в1397100 0.1 1018108
03:00−5вюв2497100 0.1 1018158
06:00−4юв2497100 0.1 1018170
09:00−5вюв2596100 0.2 1018271
12:00−4юв3694100 0.3 1017393
15:00−6вюв389599 0.3 1016338
18:00−8в4109492 0.0 1015309
21:00−8в4119296 0.0 1013367
30 января, сб
сб3000:00−8вюв41292100 0.0 1012436
03:00−11вюв51290100 0.0 1011497
06:00−11вюв51294100 0.7 1011542
09:00−11вюв51192100 1.1 1012481
12:00−10юв51092100 0.1 1012431
15:00−11вюв41093100 0.1 1011419
18:00−12вюв51194100 0.1 1010362
21:00−10вюв51293100 0.2 1009508